Flag for U.S.A. Weather past 2 weeks in Kansas City, Missouri, U.S.A.

Now
45 °F

Overcast.


Feels Like: 38 °F
Forecast: 40 / 49 °F
Wind: 15 mph from South

Location: Kansas City Downtown Airport

Current Time: Dec 21, 2014 at 11:13:31 PM

Latest Report: Dec 21, 2014 at 9:54 PM


Visibility: 10 mi

Pressure: 29.78 "Hg

Humidity: 76%

Dew point: 38 °F

Location of Kansas CityLocation

Historic Weather in Kansas City — Graph

°F

Kansas City temperature yesterday

Maximum temperature yesterday: 47 °F (at 1:54 PM)
Minimum temperature yesterday: 34 °F (at 12:54 AM)
Average temperature yesterday: 39 °F

Past Weeks' High & Low Weather Summary

 TemperatureHumidityPressure
High64 °F (Dec 14, 2:54 PM)97% (Dec 7, 10:54 PM)30.57 "Hg (Dec 7, 10:54 PM)
Low25 °F (Dec 17, 5:54 AM)48% (Dec 8, 2:54 PM)29.55 "Hg (Dec 15, 7:54 AM)
Average40 °F81%30.18 "Hg
* Reported Dec 6 9:54 PM — Dec 21 9:54 PM, Kansas City, Weather by CustomWeather, © 2014

Note: Actual official high and low records may vary slightly from our data, if they occured in-between our weather recording intervals... More about our weather records

Advertising

Kansas City weather history for previous 24 hours

 ConditionsComfort  
Time TempWeatherWind HumidityBarometerVisibility
9:54 PM
Dec 21
45 °FOvercast.15 mph76%29.78 "Hg10 mi
8:54 PM45 °FOvercast.14 mph80%29.78 "Hg10 mi
7:54 PM46 °FMostly cloudy.10 mph79%29.80 "Hg10 mi
6:54 PM46 °FOvercast.9 mph79%29.81 "Hg9 mi
5:54 PM46 °FOvercast.9 mph79%29.83 "Hg10 mi
4:54 PM46 °FOvercast.13 mph79%29.84 "Hg10 mi
3:54 PM47 °FMostly cloudy.13 mph74%29.85 "Hg10 mi
2:54 PM47 °FOvercast.10 mph74%29.86 "Hg10 mi
1:54 PM46 °FMore clouds than sun.10 mph77%29.88 "Hg10 mi
12:54 PM45 °FMore clouds than sun.10 mph80%29.91 "Hg10 mi
11:54 AM44 °FMostly cloudy.13 mph79%29.96 "Hg10 mi
10:54 AM44 °FMore clouds than sun.12 mph79%30.00 "Hg10 mi
9:54 AM42 °FOvercast.16 mph82%30.03 "Hg10 mi
8:54 AM41 °FFog.9 mph86%30.03 "Hg6 mi
7:54 AM40 °FMostly cloudy.8 mph86%30.06 "Hg8 mi
6:54 AM39 °FMostly cloudy.7 mph89%30.07 "Hg9 mi
5:54 AM39 °FOvercast.8 mph86%30.08 "Hg8 mi
4:54 AM39 °FMostly cloudy.12 mph82%30.08 "Hg10 mi
3:54 AM38 °FOvercast.8 mph86%30.10 "Hg8 mi
2:54 AM36 °FPassing clouds.7 mph85%30.11 "Hg7 mi
1:54 AM36 °FClear.8 mph85%30.11 "Hg8 mi
12:54 AM37 °FClear.9 mph82%30.11 "Hg9 mi
11:54 PM
Dec 20
37 °FClear.9 mph86%30.14 "Hg9 mi
Weather by CustomWeather, © 2014

See weather overviewHow to use our weather pages